FW7304 Weather Reports


time (UTC)temp
F
wind
direction
speed
knots
gust
knots
rain 1hr
in
rain 24hr
in
rain mn
in
humidity
%
barometer
mb
20260507040902 62 238 12.2 18.2 0.00 0.00 0.00 29 1018.1
20260507040402 61 238 7.0 10.4 0.00 0.00 0.00 30 1018.2
20260507035903 62 218 7.8 10.4 0.00 0.00 0.00 30 1018.1
20260507035402 62 243 7.8 13.9 0.00 0.00 0.00 29 1018.2
20260507034904 62 213 7.8 8.7 0.00 0.00 0.00 29 1018.0
20260507033402 62 241 10.4 11.3 0.00 0.00 0.00 29 1018.0
20260507032902 62 237 8.7 10.4 0.00 0.00 0.00 29 1017.9
20260507031403 63 279 7.0 11.3 0.00 0.00 0.00 29 1017.6
20260507030904 63 231 10.4 15.6 0.00 0.00 0.00 28 1017.4
20260507030403 63 229 10.4 15.6 0.00 0.00 0.00 28 1017.3
20260507025904 63 222 7.8 11.3 0.00 0.00 0.00 28 1017.2
20260507025402 63 236 7.8 11.3 0.00 0.00 0.00 28 1017.1
20260507024903 63 229 11.3 13.9 0.00 0.00 0.00 28 1017.0
20260507024403 63 228 8.7 13.0 0.00 0.00 0.00 28 1017.0
20260507023903 64 239 16.5 20.0 0.00 0.00 0.00 27 1017.0
20260507022903 64 253 7.0 10.4 0.00 0.00 0.00 27 1016.9
20260507022402 64 227 7.8 10.4 0.00 0.00 0.00 27 1016.8
20260507021902 64 241 5.2 12.2 0.00 0.00 0.00 27 1016.9
20260507021402 64 233 7.0 12.2 0.00 0.00 0.00 27 1016.8
20260507020903 65 238 7.8 11.3 0.00 0.00 0.00 26 1016.7
20260507020404 65 265 5.2 10.4 0.00 0.00 0.00 26 1016.7
20260507015902 65 257 6.1 10.4 0.00 0.00 0.00 26 1016.7
20260507015403 66 234 8.7 8.7 0.00 0.00 0.00 25 1016.7
20260507014903 66 246 8.7 14.8 0.00 0.00 0.00 25 1016.7
20260507013903 67 231 7.0 7.8 0.00 0.00 0.00 25 1016.5
20260507013403 67 232 8.7 11.3 0.00 0.00 0.00 24 1016.5
20260507012904 67 232 5.2 7.0 0.00 0.00 0.00 24 1016.6
20260507012402 68 229 6.1 8.7 0.00 0.00 0.00 24 1016.6
20260507011902 69 242 7.0 11.3 0.00 0.00 0.00 23 1016.6
20260507011403 69 243 5.2 8.7 0.00 0.00 0.00 22 1016.6
20260507010902 69 247 6.1 7.0 0.00 0.00 0.00 22 1016.6
20260507010403 69 252 8.7 10.4 0.00 0.00 0.00 22 1016.6
20260507005903 69 229 4.3 8.7 0.00 0.00 0.00 22 1016.5
20260507004903 71 249 5.2 6.1 0.00 0.00 0.00 20 1016.5
20260507004403 70 266 6.1 8.7 0.00 0.00 0.00 21 1016.5
20260507003903 71 232 5.2 10.4 0.00 0.00 0.00 20 1016.5
20260507003403 71 268 7.8 11.3 0.00 0.00 0.00 20 1016.5
20260507002903 71 277 6.1 11.3 0.00 0.00 0.00 21 1016.3
20260507001903 71 268 6.1 8.7 0.00 0.00 0.00 21 1016.4
20260507001403 72 277 5.2 8.7 0.00 0.00 0.00 20 1016.4
20260507000903 72 253 5.2 8.7 0.00 0.00 0.00 20 1016.4
20260507000405 71 267 10.4 11.3 0.00 0.00 0.00 21 1016.3
20260506235903 72 285 7.8 10.4 0.00 0.00 0.00 20 1016.1
20260506235403 72 218 7.0 7.8 0.00 0.00 0.00 19 1016.1
20260506234903 72 219 3.5 7.8 0.00 0.00 0.00 19 1016.2
20260506234403 73 249 6.1 8.7 0.00 0.00 0.00 19 1016.2
20260506233402 72 258 5.2 6.1 0.00 0.00 0.00 20 1016.3
20260506232903 72 287 5.2 11.3 0.00 0.00 0.00 20 1016.3
20260506231903 72 263 4.3 8.7 0.00 0.00 0.00 20 1016.3
20260506230903 72 252 7.0 10.4 0.00 0.00 0.00 19 1016.3
20260506230403 72 258 6.1 13.0 0.00 0.00 0.00 20 1016.3
20260506225903 73 263 6.1 13.0 0.00 0.00 0.00 19 1016.4
20260506225404 72 253 7.8 10.4 0.00 0.00 0.00 19 1016.3
20260506224903 73 234 6.1 7.0 0.00 0.00 0.00 19 1016.3
20260506224402 72 231 5.2 6.1 0.00 0.00 0.00 20 1016.4
20260506223903 71 45 5.2 12.2 0.00 0.00 0.00 19 1016.4
20260506223403 72 316 8.7 12.2 0.00 0.00 0.00 20 1016.4
20260506222903 70 253 3.5 7.0 0.00 0.00 0.00 20 1016.5
20260506222403 71 261 8.7 10.4 0.00 0.00 0.00 20 1016.5
20260506221903 71 160 4.3 11.3 0.00 0.00 0.00 19 1016.5
20260506221403 72 3 7.8 8.7 0.00 0.00 0.00 18 1016.7
20260506220903 73 291 8.7 11.3 0.00 0.00 0.00 19 1016.7
20260506220403 72 280 5.2 6.1 0.00 0.00 0.00 20 1016.7
20260506215903 72 235 4.3 7.0 0.00 0.00 0.00 19 1016.8
20260506215404 73 283 7.8 8.7 0.00 0.00 0.00 19 1017.0
20260506214902 72 300 4.3 11.3 0.00 0.00 0.00 18 1016.9
20260506213902 70 151 4.3 7.8 0.00 0.00 0.00 20 1017.1
20260506213403 70 43 5.2 8.7 0.00 0.00 0.00 19 1017.1
20260506212904 71 39 6.1 13.0 0.00 0.00 0.00 19 1017.3
20260506212403 72 301 7.0 10.4 0.00 0.00 0.00 19 1017.4
20260506211403 70 286 6.1 8.7 0.00 0.00 0.00 20 1017.4
20260506210903 70 256 6.1 7.8 0.00 0.00 0.00 20 1017.4
20260506210404 70 327 7.8 10.4 0.00 0.00 0.00 19 1017.5
20260506205903 70 7 6.1 11.3 0.00 0.00 0.00 20 1017.6
20260506205404 70 77 8.7 10.4 0.00 0.00 0.00 19 1017.5
20260506204403 70 58 7.8 8.7 0.00 0.00 0.00 19 1017.7
20260506203903 70 299 8.7 14.8 0.00 0.00 0.00 20 1017.8
20260506203403 68 351 7.0 10.4 0.00 0.00 0.00 21 1017.7
20260506202903 68 19 7.0 7.8 0.00 0.00 0.00 21 1017.8
20260506202404 68 14 6.1 10.4 0.00 0.00 0.00 21 1017.9
20260506201902 67 172 6.1 7.8 0.00 0.00 0.00 21 1017.9
20260506200903 68 333 8.7 12.2 0.00 0.00 0.00 21 1018.0
20260506200403 68 334 5.2 7.0 0.00 0.00 0.00 21 1018.0
20260506195903 69 280 6.1 8.7 0.00 0.00 0.00 21 1018.1
20260506195404 68 287 7.0 7.8 0.00 0.00 0.00 22 1018.1
20260506194903 67 338 7.0 7.8 0.00 0.00 0.00 22 1018.2
20260506194403 68 319 4.3 8.7 0.00 0.00 0.00 21 1018.2
20260506193903 68 309 7.8 11.3 0.00 0.00 0.00 21 1018.3
20260506193403 68 321 5.2 7.8 0.00 0.00 0.00 22 1018.4
20260506192403 67 344 7.8 8.7 0.00 0.00 0.00 22 1018.3
20260506191903 67 342 10.4 13.0 0.00 0.00 0.00 22 1018.5
20260506191403 66 293 7.8 7.8 0.00 0.00 0.00 23 1018.4
20260506190904 66 327 8.7 8.7 0.00 0.00 0.00 23 1018.6
20260506190403 66 302 10.4 11.3 0.00 0.00 0.00 23 1018.5
20260506185903 66 309 8.7 13.0 0.00 0.00 0.00 23 1018.6
20260506185403 66 316 7.8 10.4 0.00 0.00 0.00 23 1018.6
20260506184904 65 318 4.3 6.1 0.00 0.00 0.00 22 1018.5
20260506184403 66 20 7.8 8.7 0.00 0.00 0.00 22 1018.6
20260506183903 66 325 6.1 7.8 0.00 0.00 0.00 22 1018.7
20260506183403 65 310 6.1 7.0 0.00 0.00 0.00 23 1018.7
20260506182903 64 14 8.7 8.7 0.00 0.00 0.00 22 1018.8
20260506182403 64 9 6.1 8.7 0.00 0.00 0.00 22 1018.8
20260506181903 65 332 5.2 5.2 0.00 0.00 0.00 22 1018.9
20260506181402 64 334 8.7 10.4 0.00 0.00 0.00 23 1018.8
20260506180903 64 295 6.1 8.7 0.00 0.00 0.00 23 1018.8
20260506180403 63 293 7.8 10.4 0.00 0.00 0.00 23 1018.7
20260506175903 62 26 6.1 7.8 0.00 0.00 0.00 23 1018.7
20260506173403 63 312 8.7 13.0 0.00 0.00 0.00 24 1018.8
20260506172903 62 355 6.1 13.0 0.00 0.00 0.00 24 1018.7
20260506172403 62 323 7.8 8.7 0.00 0.00 0.00 25 1018.7
20260506171403 61 347 6.1 7.0 0.00 0.00 0.00 26 1018.6
20260506170403 61 25 5.2 8.7 0.00 0.00 0.00 27 1018.6
20260506165903 61 1 7.8 8.7 0.00 0.00 0.00 27 1018.6
20260506165403 61 275 5.2 7.0 0.00 0.00 0.00 27 1018.5
20260506164902 60 27 5.2 7.0 0.00 0.00 0.00 28 1018.5
20260506164403 60 343 5.2 7.0 0.00 0.00 0.00 28 1018.5
20260506163903 60 278 3.5 7.0 0.00 0.00 0.00 29 1018.5
20260506163403 60 74 4.3 7.0 0.00 0.00 0.00 30 1018.5
20260506162904 59 20 1.7 7.0 0.00 0.00 0.00 30 1018.6
20260506161403 58 262 7.0 8.7 0.00 0.00 0.00 31 1018.4
20260506160903 58 291 6.1 6.1 0.00 0.00 0.00 31 1018.4
20260506160403 58 5 2.6 5.2 0.00 0.00 0.00 31 1018.4
20260506155903 58 315 5.2 7.8 0.00 0.00 0.00 30 1018.5
20260506155403 58 299 5.2 8.7 0.00 0.00 0.00 31 1018.5
20260506154903 58 292 4.3 6.1 0.00 0.00 0.00 32 1018.4
20260506154403 57 352 4.3 5.2 0.00 0.00 0.00 33 1018.3
20260506153404 56 324 6.1 7.0 0.00 0.00 0.00 36 1018.4
20260506152403 56 47 5.2 6.1 0.00 0.00 0.00 36 1018.2
20260506151903 55 9 4.3 6.1 0.00 0.00 0.00 36 1018.2
20260506151404 55 17 2.6 4.3 0.00 0.00 0.00 39 1018.3
20260506150403 55 88 2.6 2.6 0.00 0.00 0.00 39 1018.3
20260506145904 54 96 4.3 5.2 0.00 0.00 0.00 40 1018.2
20260506145402 53 46 2.6 4.3 0.00 0.00 0.00 41 1018.2
20260506144903 53 64 2.6 2.6 0.00 0.00 0.00 42 1018.2
20260506144403 52 23 2.6 2.6 0.00 0.00 0.00 43 1018.2
20260506143904 52 288 2.6 2.6 0.00 0.00 0.00 43 1018.2
20260506143403 51 322 1.7 2.6 0.00 0.00 0.00 44 1018.2
20260506142903 51 324 2.6 2.6 0.00 0.00 0.00 44 1018.2
20260506142404 50 18 2.6 2.6 0.00 0.00 0.00 46 1018.2
20260506141903 50 46 4.3 4.3 0.00 0.00 0.00 47 1018.2
20260506141403 50 28 2.6 2.6 0.00 0.00 0.00 47 1018.2
20260506140903 49 22 3.5 4.3 0.00 0.00 0.00 47 1018.1
20260506140403 49 217 0.9 0.9 0.00 0.00 0.00 49 1018.1
20260506135903 48 243 1.7 2.6 0.00 0.00 0.00 50 1018.0
20260506135404 47 202 1.7 1.7 0.00 0.00 0.00 51 1017.9
20260506134903 47 206 0.9 0.9 0.00 0.00 0.00 51 1017.9
20260506134402 46 266 1.7 1.7 0.00 0.00 0.00 53 1018.0
20260506133403 44 209 0.9 0.9 0.00 0.00 0.00 56 1017.8
20260506132903 43 206 0.9 0.9 0.00 0.00 0.00 58 1017.6
20260506132403 42 146 0.9 0.9 0.00 0.00 0.00 58 1017.5
20260506131902 40 249 0.0 0.9 0.00 0.00 0.00 61 1017.4
20260506131403 39 292 1.7 1.7 0.00 0.00 0.00 63 1017.2
20260506130903 38 154 0.9 2.6 0.00 0.00 0.00 64 1017.1
20260506130403 38 196 1.7 2.6 0.00 0.00 0.00 64 1017.1
20260506125903 37 174 1.7 1.7 0.00 0.00 0.00 65 1017.1
20260506125403 37 165 0.9 2.6 0.00 0.00 0.00 66 1017.1
20260506124903 37 184 1.7 1.7 0.00 0.00 0.00 67 1017.0
20260506124403 36 158 0.9 1.7 0.00 0.00 0.00 67 1017.0
20260506123903 37 117 0.9 1.7 0.00 0.00 0.00 65 1016.9
20260506123403 37 227 0.9 1.7 0.00 0.00 0.00 65 1016.8
20260506122903 37 185 0.9 0.9 0.00 0.00 0.00 65 1016.7
20260506122403 37 109 1.7 2.6 0.00 0.00 0.00 63 1016.6
20260506121903 37 137 1.7 1.7 0.00 0.00 0.00 63 1016.5
20260506121403 38 122 0.9 1.7 0.00 0.00 0.00 63 1016.5
20260506120903 38 95 2.6 2.6 0.00 0.00 0.00 63 1016.4
20260506120403 39 135 1.7 1.7 0.00 0.00 0.00 62 1016.4
20260506115904 39 117 1.7 1.7 0.00 0.00 0.00 61 1016.5
20260506114402 39 130 1.7 2.6 0.00 0.00 0.00 60 1016.6
20260506113904 40 97 1.7 1.7 0.00 0.00 0.00 58 1016.6
20260506113403 41 134 1.7 1.7 0.00 0.00 0.00 58 1016.6
20260506112903 41 115 1.7 1.7 0.00 0.00 0.00 57 1016.5
20260506112403 42 150 0.9 1.7 0.00 0.00 0.00 55 1016.5
20260506111403 42 312 1.7 2.6 0.00 0.00 0.00 58 1016.5
20260506110903 42 329 1.7 2.6 0.00 0.00 0.00 58 1016.5
20260506110403 40 274 2.6 4.3 0.00 0.00 0.00 63 1016.4
20260506105903 39 277 2.6 4.3 0.00 0.00 0.00 62 1016.4
20260506104903 38 272 0.9 1.7 0.00 0.00 0.00 63 1016.4
20260506104402 38 49 1.7 2.6 0.00 0.00 0.00 64 1016.2
20260506103404 37 178 1.7 2.6 0.00 0.00 0.00 63 1016.1
20260506102903 37 84 1.7 2.6 0.00 0.00 0.00 61 1016.0
20260506102404 38 123 2.6 2.6 0.00 0.00 0.00 62 1016.0
20260506101903 38 68 0.9 0.9 0.00 0.00 0.00 61 1016.0
20260506101402 39 97 0.9 1.7 0.00 0.00 0.00 59 1016.0
20260506100903 39 125 1.7 2.6 0.00 0.00 0.00 59 1016.0
20260506100403 40 143 2.6 2.6 0.00 0.00 0.00 58 1015.9
20260506095904 40 48 1.7 2.6 0.00 0.00 0.00 58 1016.0
20260506095404 41 42 1.7 4.3 0.00 0.00 0.00 56 1016.0
20260506094903 41 106 2.6 2.6 0.00 0.00 0.00 55 1016.1
20260506094404 42 125 2.6 2.6 0.00 0.00 0.00 53 1016.1
20260506093903 43 153 2.6 2.6 0.00 0.00 0.00 52 1016.1
20260506092903 45 154 1.7 2.6 0.00 0.00 0.00 49 1016.2
20260506092403 48 147 3.5 5.2 0.00 0.00 0.00 44 1016.1
20260506091904 48 262 4.3 5.2 0.00 0.00 0.00 48 1016.1
20260506091403 48 312 2.6 2.6 0.00 0.00 0.00 48 1016.0
20260506090403 48 266 4.3 5.2 0.00 0.00 0.00 48 1015.9
20260506085904 48 234 1.7 4.3 0.00 0.00 0.00 48 1015.9
20260506085403 48 227 2.6 4.3 0.00 0.00 0.00 48 1015.9
20260506084403 48 255 3.5 6.1 0.00 0.00 0.00 47 1015.9
20260506083903 48 247 4.3 5.2 0.00 0.00 0.00 47 1015.9
20260506083403 48 233 3.5 4.3 0.00 0.00 0.00 47 1015.9
20260506081903 49 240 2.6 2.6 0.00 0.00 0.00 46 1015.9
20260506081404 49 250 1.7 6.1 0.00 0.00 0.00 45 1015.9
20260506080903 49 223 5.2 7.0 0.00 0.00 0.00 45 1015.8
20260506080402 49 225 5.2 7.0 0.00 0.00 0.00 45 1015.9
20260506072403 49 248 1.7 5.2 0.00 0.00 0.00 44 1016.0
20260506071903 49 230 4.3 5.2 0.00 0.00 0.00 44 1015.9
20260506071403 49 210 2.6 4.3 0.00 0.00 0.00 44 1015.9
20260506070903 49 260 2.6 4.3 0.00 0.00 0.00 43 1015.9
20260506070404 49 235 3.5 4.3 0.00 0.00 0.00 43 1015.9
20260506062403 50 237 5.2 6.1 0.00 0.00 0.00 41 1015.6
20260506061403 50 240 2.6 4.3 0.00 0.00 0.00 42 1015.6
20260506060904 50 250 4.3 7.8 0.00 0.00 0.00 41 1015.6
20260506060403 49 225 2.6 2.6 0.00 0.00 0.00 42 1015.6
20260506051404 50 128 1.7 1.7 0.00 0.00 0.00 39 1015.4
20260506050903 50 231 2.6 2.6 0.00 0.00 0.00 39 1015.3
20260506050403 51 229 1.7 2.6 0.00 0.00 0.00 39 1015.3
20260506044903 51 266 2.6 4.3 0.00 0.00 0.00 38 1015.2
20260506044404 51 289 4.3 4.3 0.00 0.00 0.00 38 1015.2
20260506043903 52 289 2.6 5.2 0.00 0.00 0.00 37 1015.2
20260506043404 52 271 5.2 7.0 0.00 0.00 0.00 36 1015.2
20260506042403 52 267 2.6 5.2 0.00 0.00 0.00 36 1015.0
20260506041904 52 250 5.2 7.0 0.00 0.00 0.00 36 1015.0
20260506041403 52 258 3.5 5.2 0.00 0.00 0.00 36 1015.0